| time (UTC) | temp F | wind direction | speed MPH | gust MPH | rain 1hr in | rain 24hr in | rain mn in | humidity % | barometer mb |
| 20260504020004 | 57 | 267 | 2.0 | 6.0 | 0.00 | 0.00 | 0.00 | 44 | 1012.4 |
| 20260504014502 | 57 | 225 | 2.0 | 5.0 | 0.00 | 0.00 | 0.00 | 41 | 1012.3 |
| 20260504013113 | 57 | 245 | 3.0 | 8.0 | 0.00 | 0.00 | 0.00 | 39 | 1012.2 |
| 20260504011600 | 57 | 215 | 2.0 | 7.0 | 0.00 | 0.00 | 0.00 | 37 | 1012.1 |
| 20260504010115 | 58 | 217 | 1.0 | 4.0 | 0.00 | 0.00 | 0.00 | 37 | 1011.8 |
| 20260504004559 | 58 | 209 | 2.0 | 5.0 | 0.00 | 0.00 | 0.00 | 37 | 1011.7 |
| 20260504003059 | 58 | 237 | 3.0 | 6.0 | 0.00 | 0.00 | 0.00 | 36 | 1011.4 |
| 20260504001603 | 59 | 256 | 3.0 | 7.0 | 0.00 | 0.00 | 0.00 | 34 | 1011.2 |
| 20260504000059 | 59 | 250 | 2.0 | 10.0 | 0.00 | 0.00 | 0.00 | 34 | 1011.0 |
| 20260503234556 | 59 | 240 | 2.0 | 9.0 | 0.00 | 0.00 | 0.00 | 34 | 1010.9 |
| 20260503233102 | 60 | 288 | 2.0 | 8.0 | 0.00 | 0.00 | 0.00 | 30 | 1010.7 |
| 20260503231655 | 60 | 259 | 2.0 | 10.0 | 0.00 | 0.00 | 0.00 | 29 | 1010.5 |
| 20260503230055 | 61 | 6 | 4.0 | 12.0 | 0.00 | 0.00 | 0.00 | 28 | 1010.5 |
| 20260503224553 | 61 | 296 | 5.0 | 13.0 | 0.00 | 0.00 | 0.00 | 28 | 1010.4 |
| 20260503223053 | 61 | 39 | 5.0 | 15.0 | 0.00 | 0.00 | 0.00 | 28 | 1010.4 |
| 20260503221559 | 61 | 275 | 4.0 | 16.0 | 0.00 | 0.00 | 0.00 | 27 | 1010.2 |
| 20260503214551 | 61 | 248 | 6.0 | 16.0 | 0.00 | 0.00 | 0.00 | 27 | 1010.4 |
| 20260503213049 | 60 | 39 | 6.0 | 15.0 | 0.00 | 0.00 | 0.00 | 28 | 1010.3 |
| 20260503211548 | 60 | 354 | 9.0 | 20.0 | 0.00 | 0.00 | 0.00 | 28 | 1010.2 |
| 20260503210053 | 60 | 328 | 5.0 | 15.0 | 0.00 | 0.00 | 0.00 | 28 | 1010.2 |
| 20260503204558 | 60 | 19 | 9.0 | 17.0 | 0.00 | 0.00 | 0.00 | 29 | 1010.2 |
| 20260503203043 | 59 | 271 | 7.0 | 16.0 | 0.00 | 0.00 | 0.00 | 30 | 1010.2 |
| 20260503201542 | 59 | 269 | 5.0 | 14.0 | 0.00 | 0.00 | 0.00 | 30 | 1010.3 |
| 20260503200046 | 59 | 277 | 9.0 | 19.0 | 0.00 | 0.00 | 0.00 | 30 | 1010.4 |
| 20260503194539 | 58 | 307 | 8.0 | 17.0 | 0.00 | 0.00 | 0.00 | 31 | 1010.5 |
| 20260503193039 | 59 | 333 | 6.0 | 17.0 | 0.00 | 0.00 | 0.00 | 31 | 1010.6 |
| 20260503191537 | 58 | 291 | 8.0 | 13.0 | 0.00 | 0.00 | 0.00 | 32 | 1010.8 |
| 20260503190046 | 58 | 2 | 8.0 | 17.0 | 0.00 | 0.00 | 0.00 | 32 | 1011.0 |
| 20260503184535 | 57 | 303 | 6.0 | 12.0 | 0.00 | 0.00 | 0.00 | 35 | 1011.2 |
| 20260503183031 | 56 | 323 | 5.0 | 15.0 | 0.00 | 0.00 | 0.00 | 35 | 1011.3 |
| 20260503181533 | 56 | 273 | 5.0 | 16.0 | 0.00 | 0.00 | 0.00 | 35 | 1011.4 |
| 20260503180031 | 56 | 331 | 4.0 | 19.0 | 0.00 | 0.00 | 0.00 | 37 | 1011.5 |
| 20260503174528 | 55 | 264 | 9.0 | 17.0 | 0.00 | 0.00 | 0.00 | 37 | 1011.4 |
| 20260503173031 | 55 | 285 | 5.0 | 13.0 | 0.00 | 0.00 | 0.00 | 37 | 1011.4 |
| 20260503171525 | 55 | 326 | 4.0 | 16.0 | 0.00 | 0.00 | 0.00 | 38 | 1011.5 |
| 20260503081549 | 48 | 339 | 5.0 | 9.0 | 0.00 | 0.00 | 0.00 | 51 | 1010.1 |
| 20260503071536 | 50 | 325 | 3.0 | 7.0 | 0.00 | 0.00 | 0.00 | 48 | 1009.9 |
| 20260503054528 | 52 | 360 | 2.0 | 8.0 | 0.00 | 0.00 | 0.00 | 46 | 1010.1 |
| 20260503053018 | 52 | 16 | 2.0 | 8.0 | 0.00 | 0.00 | 0.00 | 46 | 1010.2 |
| 20260503051509 | 52 | 25 | 3.0 | 9.0 | 0.00 | 0.00 | 0.00 | 45 | 1010.5 |
| 20260503050005 | 53 | 23 | 3.0 | 11.0 | 0.00 | 0.00 | 0.00 | 43 | 1010.6 |
| 20260503044503 | 53 | 8 | 2.0 | 9.0 | 0.00 | 0.00 | 0.00 | 40 | 1010.7 |
| 20260503043102 | 54 | 347 | 3.0 | 9.0 | 0.00 | 0.00 | 0.00 | 39 | 1010.7 |
| 20260503041558 | 54 | 11 | 2.0 | 7.0 | 0.00 | 0.00 | 0.00 | 37 | 1010.8 |
| 20260503040055 | 54 | 321 | 3.0 | 11.0 | 0.00 | 0.00 | 0.00 | 38 | 1010.8 |
| 20260503034554 | 55 | 310 | 5.0 | 13.0 | 0.00 | 0.00 | 0.00 | 36 | 1010.8 |
| 20260503033053 | 55 | 337 | 3.0 | 9.0 | 0.00 | 0.00 | 0.00 | 35 | 1010.6 |
| 20260503031607 | 55 | 354 | 5.0 | 11.0 | 0.00 | 0.00 | 0.00 | 35 | 1010.6 |
| 20260503030052 | 55 | 345 | 3.0 | 10.0 | 0.00 | 0.00 | 0.00 | 35 | 1010.7 |
| 20260503024552 | 55 | 21 | 3.0 | 9.0 | 0.00 | 0.00 | 0.00 | 36 | 1010.8 |
| 20260503023054 | 56 | 318 | 4.0 | 9.0 | 0.00 | 0.00 | 0.00 | 36 | 1010.7 |
| 20260503021550 | 56 | 1 | 2.0 | 9.0 | 0.00 | 0.00 | 0.00 | 37 | 1010.6 |